Location: Plum
(40.5000°N, 79.7500°W)
Time: 02:34:27
(UTC-04:00)

Daily predictions for brighter satellites

Satellite Brightness Start Highest point End
(mag) Time Altitude Azimuth Time Altitude Azimuth Time Altitude Azimuth
CZ-4 R/B 4.3 00:03:55 10° N 00:08:21 55° WNW 00:08:21 55° WNW
Cosmos 1655 Rocket 4.4 00:11:02 44° SW 00:12:33 55° W 00:18:41 10° N
ALOS 2 4.0 00:14:39 30° NE 00:14:39 30° NE 00:17:37 10° N
Cosmos 2082 3.6 00:08:58 10° NNW 00:14:40 79° NE 00:14:40 79° NE
Cosmos 2278 3.6 00:17:39 84° N 00:17:39 84° N 00:23:12 10° NNE
Cosmos 1371 Rocket 4.2 00:26:32 67° N 00:26:32 67° N 00:31:04 10° NNE
H-2A R/B 3.9 00:27:42 23° WNW 00:27:42 23° WNW 00:30:04 10° NW
CZ-2C R/B 3.0 00:22:42 10° NNE 00:26:55 55° NE 00:26:55 55° NE
Cosmos 1190 Rocket 4.4 00:25:40 10° NNW 00:30:12 58° NNE 00:30:12 58° NNE
USA 229 DEB 3.5 00:30:45 77° SE 00:30:53 77° ESE 00:37:50 10° NE
USA 229 3.5 00:30:53 76° SE 00:30:59 76° ESE 00:37:54 10° NE
Mayak 1.0 00:28:11 10° NE 00:29:34 18° NE 00:29:34 18° NE
Cosmos 1656 3.7 00:32:39 70° NNE 00:32:39 70° NNE 00:37:34 10° NNE
Cosmos 2227 Rocket 2.6 00:32:11 10° NNW 00:37:06 53° W 00:37:06 53° W
CZ-4C R/B 3.5 00:33:21 10° NNW 00:40:14 49° NE 00:42:51 37° E
Cosmos 883 Rocket 4.3 00:35:56 10° N 00:42:03 83° WNW 00:42:03 83° WNW
Cosmos 1624 Rocket 4.4 00:49:47 60° NW 00:49:47 60° NW 00:54:37 10° NNE
GP-B 4.4 00:45:35 10° N 00:48:24 38° NNE 00:48:24 38° NNE
Cosmos 407 Rocket 3.9 00:45:06 10° NNW 00:49:36 64° N 00:49:36 64° N
ISS -0.4 00:56:38 10° NNW 00:57:24 13° NNW 00:57:24 13° NNW
BREEZE-M DEB (TANK) 4.0 00:38:47 10° SW 00:58:52 89° SSE 01:03:27 10° ENE
Cosmos 1980 Rocket 2.7 01:01:52 50° NE 01:01:52 50° NE 01:06:11 10° NNE
CZ-4B R/B 4.4 01:12:24 15° NNE 01:12:24 15° NNE 01:13:18 10° NNE
Meteor 2-4 Rocket 4.4 01:07:03 10° NNW 01:11:16 43° WNW 01:11:16 43° WNW
NOSS 3-1 (C) 3.6 01:20:00 63° ENE 01:20:00 63° ENE 01:25:28 10° NE
CZ-2C R/B 4.5 01:26:43 27° WNW 01:26:43 27° WNW 01:29:45 10° NW
Cosmos 1697 Rocket 3.4 01:26:53 45° WNW 01:26:57 45° WNW 01:32:21 10° NNE
Cosmos 1745 Rocket 4.1 01:29:34 64° ENE 01:29:34 64° ENE 01:35:18 10° NNE
Cosmos 2297 Rocket 3.9 01:27:05 10° NW 01:30:09 22° W 01:30:09 22° W
SL-08 R/B 4.4 01:32:46 82° NE 01:32:46 82° NE 01:38:53 10° N
Cosmos 1452 Rocket 4.2 01:47:07 48° NW 01:47:07 48° NW 01:51:39 10° N
SL-16 R/B 2.8 01:48:33 48° ENE 01:48:33 48° ENE 01:53:04 10° NNE
Cosmos 2322 Rocket 2.6 01:54:35 55° ENE 01:54:35 55° ENE 01:59:21 10° NNE
Cosmos 1850 Rocket 4.4 01:51:49 10° NNW 01:56:14 61° NNW 01:56:14 61° NNW
Cosmos 1238 Rocket 4.2 01:52:23 10° NNW 01:57:13 54° WNW 01:57:13 54° WNW
USA 234 4.3 01:52:14 10° ENE 01:56:48 30° ESE 01:56:48 30° ESE
Mayak 0.9 02:04:02 10° NNW 02:06:13 20° NW 02:06:13 20° NW
USA 81 4.3 02:04:36 10° N 02:09:11 65° NNE 02:09:11 65° NNE
Cosmos 44 Rocket 4.2 02:09:23 10° NNW 02:13:48 42° NE 02:13:48 42° NE
PSLV R/B 4.3 02:17:26 10° NNE 02:21:14 57° NNE 02:21:14 57° NNE
ATLAS 2AS CENTAUR R/B 3.7 02:21:12 36° SE 02:22:16 37° ESE 02:29:29 10° NE
NOSS 3-1 (A) 3.8 02:26:49 49° WNW 02:27:36 52° NW 02:33:58 10° NNE
CZ-4C R/B 3.5 02:22:03 10° NW 02:28:00 40° W 02:28:00 40° W
Cosmos 2263 Rocket 2.1 02:27:46 10° NNW 02:33:26 83° NE 02:33:26 83° NE
Cosmos 1709 Rocket 3.8 02:39:20 74° WSW 02:39:33 75° W 02:45:41 10° N
Cosmos 2360 Rocket 2.3 02:43:23 63° ESE 02:43:23 63° ESE 02:48:59 10° NNE
ARIANE 5 R/B 4.4 02:40:53 10° NE 02:44:35 20° E 02:45:52 18° ESE
Cosmos 1980 Rocket 4.0 02:43:36 18° WNW 02:45:06 20° NW 02:49:08 10° N
Cosmos 2219 Rocket 4.2 02:44:12 15° ESE 02:45:37 16° E 02:48:59 10° ENE
ATLAS 3B R/B 4.3 02:39:46 10° NNW 02:45:43 31° NE 02:51:26 10° ESE
Cosmos 1331 Rocket 4.0 02:46:22 76° N 02:46:22 76° N 02:51:11 10° NNE
Cosmos 1825 Rocket 4.2 02:48:08 10° N 02:52:01 52° NE 02:52:01 52° NE
Cosmos 1758 Rocket 4.4 02:51:29 10° N 02:55:36 42° ENE 02:55:36 42° ENE
SL-8 R/B 3.9 02:56:08 69° NNE 02:56:08 69° NNE 03:00:29 10° ENE
Cosmos 44 4.0 02:52:00 10° NNW 02:54:53 41° NNW 02:54:53 41° NNW
COSMOS 2428 3.6 02:59:19 36° SE 03:00:13 38° ESE 03:05:28 10° NE
Helios 1A Rocket 3.6 03:01:31 10° N 03:04:37 50° N 03:04:37 50° N
H-2A R/B 4.3 03:02:50 10° NNW 03:05:02 21° NW 03:05:02 21° NW
NOSS 2-3 (C) 3.7 03:07:39 88° NNE 03:07:39 88° NNE 03:13:03 10° NE
Iridium 4 Rocket 4.3 03:07:50 38° SE 03:09:36 51° E 03:14:56 10° NNE
CBERS-1 3.9 03:05:20 10° NNE 03:10:29 78° ESE 03:10:52 73° SSE
Cosmos 1486 Rocket 3.9 03:09:30 10° NNW 03:14:50 86° ENE 03:15:34 67° SSE
Cosmos 2322 3.5 03:15:50 69° SW 03:16:32 85° WNW 03:22:14 10° NNE
Lacrosse 5 rocket 3.7 03:14:02 10° NNW 03:17:11 23° NNE 03:20:29 10° E
Cosmos 2333 Rocket 3.8 03:16:29 20° SE 03:18:35 25° ESE 03:23:09 10° NE
SL-08 R/B 3.1 03:18:56 85° WNW 03:18:56 85° WNW 03:23:30 10° NNW
SL-16 R/B 2.9 03:15:50 27° SE 03:19:19 65° ENE 03:25:31 10° N
Cosmos 2184 Rocket 3.9 03:18:46 57° S 03:20:09 87° W 03:26:22 10° N
Resurs 1-4 Rocket 2.7 03:15:18 10° NNE 03:20:25 50° E 03:21:44 40° SE
Cosmos 2181 Rocket 4.5 03:19:47 10° NNW 03:25:46 42° W 03:26:25 41° WSW
UNK 4.0 03:26:56 47° SE 03:28:06 65° ENE 03:32:41 10° N
Cosmos 1354 Rocket 4.4 03:25:26 10° NNW 03:30:43 61° ENE 03:33:54 24° SE
SL-16 R/B 3.7 03:30:24 21° WNW 03:31:59 23° NW 03:36:27 10° N
IRS-1C 4.0 03:26:48 10° NNE 03:32:10 87° WNW 03:33:15 59° SSW
Cosmos 1953 Rocket 3.5 03:28:18 10° NNW 03:32:41 73° W 03:32:41 73° W
AQUA 3.7 03:28:33 10° N 03:33:18 70° WNW 03:33:42 66° WSW
DELTA 2 R/B (1) 3.4 03:32:19 58° WSW 03:33:24 79° S 03:38:59 10° E
Cosmos 1707 2.8 03:32:23 10° N 03:36:03 75° NE 03:36:03 75° NE
Cosmos 2058 Rocket 2.9 03:36:39 76° SSW 03:37:00 89° W 03:41:32 10° N
Cosmos 2322 Rocket 3.9 03:36:23 18° WNW 03:38:13 21° NW 03:42:30 10° N
Lacrosse 5 4.0 03:39:26 13° SE 03:41:01 15° ESE 03:43:52 10° E
USA 234 3.3 03:34:42 10° NE 03:41:14 72° NW 03:44:08 36° WSW
ADEOS Rocket 3.2 03:39:05 10° N 03:45:00 54° WNW 03:46:32 42° WSW
Cosmos 2333 4.2 03:44:12 47° SSW 03:45:55 84° ESE 03:51:38 10° NNE
NOSS 2-3 (D) 4.5 03:45:16 39° W 03:46:26 46° NW 03:51:45 10° NNE
Meteor 2-5 Rocket 3.7 03:41:20 10° N 03:47:03 88° E 03:49:54 32° S
Nadezhda 3 Rocket 4.1 03:42:14 10° N 03:48:31 78° E 03:52:38 23° SSE
ERBS 3.9 03:48:58 28° ESE 03:48:58 28° ESE 03:51:38 10° ENE
Cosmos 2074 Rocket 4.4 03:48:28 39° WSW 03:50:10 49° WNW 03:56:17 10° N
Cosmos 1766 4.1 03:49:22 36° SE 03:50:24 44° E 03:54:10 10° NNE
Cosmos 1726 Rocket 4.0 03:50:51 43° W 03:50:56 43° WNW 03:55:11 10° N
H-2A R/B 4.1 03:16:07 10° W 03:52:29 49° SSW 03:58:34 10° SE
Cosmos 1844 4.1 03:47:28 10° NNW 03:53:03 63° ENE 03:58:39 10° SE
CZ-2D R/B 2.1 03:48:49 10° NNE 03:54:19 82° WNW 03:56:15 42° SSW
Cosmos 1607 3.9 03:50:44 10° NW 03:57:07 65° WSW 04:02:37 14° SSE
BREEZE-M DEB (TANK) 3.6 03:56:16 38° S 03:57:49 54° SE 04:11:01 10° ENE
NPP 4.5 03:55:14 10° N 04:00:06 36° WNW 04:01:29 31° W
IRS-1D 3.5 03:58:55 10° N 04:03:50 67° WNW 04:05:27 42° SW
Cosmos 1184 Rocket 3.4 04:01:02 10° NNW 04:03:38 45° NW 04:03:38 45° NW
Okean O Rocket 4.4 04:02:38 10° ENE 04:04:22 12° E 04:06:05 10° ESE
Spot 4 Rocket 4.1 04:00:59 10° N 04:06:05 62° WNW 04:07:50 39° SW
OAO 3 Rocket 3.6 04:06:15 40° S 04:06:15 40° S 04:10:40 10° ESE
MOS 1 Rocket 3.0 04:02:02 10° NNE 04:06:29 90° ENE 04:07:53 43° SSW
Cosmos 1503 Rocket 4.0 04:02:36 10° NNW 04:07:52 62° WSW 04:10:27 30° S
Meteor 2-8 Rocket 4.5 04:03:47 10° NNW 04:09:48 62° W 04:12:57 29° SSW
ATLAS 2AS CENTAUR R/B 3.4 04:08:38 27° WSW 04:13:02 55° NW 04:21:03 10° NNE
ADEOS 3.5 04:08:11 10° N 04:13:24 71° WNW 04:15:40 34° SSW
Cosmos 2154 Rocket 4.1 04:12:06 32° SSW 04:15:04 61° W 04:21:17 10° N
Cosmos 1544 3.3 04:15:09 36° SSE 04:16:30 68° E 04:20:13 10° NNE
Cosmos 2263 Rocket 4.2 04:14:18 10° WNW 04:15:05 11° W 04:15:05 11° W
In-Cosmos 22 4.2 04:13:31 10° N 04:18:52 77° E 04:24:08 10° SSE
Cosmos 1992 Rocket 4.0 04:16:51 35° SW 04:18:59 66° WNW 04:24:11 10° NNE
Cosmos 1805 3.8 04:17:43 25° SSE 04:19:48 56° E 04:23:39 10° NNE
NOSS 3-4 (A) 4.3 04:16:49 18° S 04:21:08 43° ESE 04:27:08 10° NE
NOSS 3-4 (C) 4.4 04:16:53 18° S 04:21:12 42° ESE 04:27:12 10° NE
ARIANE 5 R/B 2.9 04:18:59 10° N 04:23:56 49° WNW 04:26:12 30° SW
Cosmos 1271 Rocket 3.5 04:23:45 33° W 04:24:25 36° WNW 04:28:07 10° N
Cosmos 2360 Rocket 3.9 04:25:09 15° W 04:27:51 20° NW 04:32:00 10° N
Cosmos 2219 Rocket 2.3 04:25:56 29° SW 04:28:55 67° WNW 04:34:36 10° NNE
BREEZE-M DEB (TANK) 4.1 04:27:31 29° SSW 04:29:45 68° SE 04:43:26 10° ENE
Cosmos 2228 4.2 04:29:37 24° W 04:30:23 25° WNW 04:33:58 10° NNW
Meteor 1-22 Rocket 4.3 04:27:27 26° SSW 04:30:49 66° WNW 04:36:47 10° N
Tiangong 1 2.3 04:31:28 24° SSE 04:31:28 24° SSE 04:33:39 10° E
Cosmos 2366 rocket 4.4 04:25:48 10° S 04:31:50 61° E 04:37:57 10° NNE
Cosmos 1340 Rocket 3.3 04:30:19 10° NNW 04:34:01 39° W 04:34:59 33° SW
Cosmos 1844 Rocket 3.0 04:30:43 10° NW 04:36:04 44° WSW 04:40:43 13° S
ATLAS 3B R/B 2.6 04:30:14 10° NW 04:36:46 58° WSW 04:43:04 10° SSE
Cosmos 1980 3.7 04:33:22 22° SSW 04:37:09 86° ESE 04:42:53 10° NNE
Cosmos 2237 Rocket 2.2 04:34:00 21° SSW 04:37:53 81° ESE 04:43:32 10° NNE
Intelsat 5-1 Rocket 4.5 04:37:15 12° S 04:38:17 12° SSE 04:40:52 10° SE
Cosmos 2341 Rocket 4.3 04:36:31 22° SSW 04:40:33 54° W 04:46:47 10° N
SeaSat 1 4.4 04:37:07 10° ESE 04:41:29 33° NE 04:45:52 10° N
UNKNOWN OBJECT B 3.2 04:40:04 10° N 04:43:46 45° WNW 04:45:32 26° SW
COSMOS 2428 3.8 04:41:21 19° WSW 04:44:30 32° WNW 04:49:37 10° N
Aureole 2 Rocket 3.8 04:43:07 24° WSW 04:44:40 32° WNW 04:48:16 10° N
BREEZE-M DEB (TANK) 2.5 04:43:16 25° W 04:44:53 66° NNW 04:50:12 10° ENE
SEDSat Delta rocket 4.0 04:44:26 22° SSW 04:45:03 23° S 04:48:18 10° SE
ADEOS II 2.6 04:47:11 10° NNE 04:52:24 60° E 04:57:35 10° S
Cosmos 1809 Rocket 4.4 04:49:13 13° SSW 04:54:39 71° W 05:00:50 10° N
MOS 1-B 4.4 04:50:01 10° NNE 04:55:51 84° ESE 05:01:40 10° SSW
Cosmos 2218 Rocket 4.0 04:50:22 11° SSW 04:56:30 77° W 05:02:55 10° N
Lacrosse 5 rocket 1.4 04:52:40 10° NW 04:56:36 54° SW 05:00:46 10° SSE
Cosmos 389 Rocket 4.1 04:56:54 18° W 04:57:59 20° WNW 05:00:46 10° NNW
Cosmos 482 Debris 3.5 04:59:12 29° S 04:59:49 40° SE 05:02:10 10° ENE
Resurs 1-4 Rocket 3.6 04:56:01 10° NNW 04:59:53 21° WNW 05:02:49 14° WSW
Meteor 2-21 4.5 04:55:56 12° SSW 05:01:32 65° W 05:07:39 10° N
Meteor 2-14 Rocket 4.4 04:55:57 10° S 05:02:01 84° W 05:08:10 10° N
Cosmos 2333 Rocket 2.7 04:58:30 18° SW 05:02:32 45° WNW 05:07:59 10° NNE
SL-16 R/B 3.9 05:00:56 16° WSW 05:03:23 20° W 05:07:48 10° NW
DELTA 2 R/B(2) 3.0 05:04:21 41° SSW 05:04:39 50° SSE 05:06:26 10° E
USA 161 1.7 05:03:28 12° S 05:06:08 50° W 05:08:56 10° NNW
Cosmos 1758 3.6 05:03:48 15° SSW 05:06:56 51° W 05:10:55 10° N
USA 238 DEB 4.0 05:01:42 10° NW 05:08:23 45° WSW 05:15:05 10° S
USA 238 4.0 05:01:48 10° NW 05:08:30 46° WSW 05:15:13 10° S
Cosmos 1356 Rocket 3.8 05:05:03 10° NNW 05:08:47 38° W 05:12:29 10° SSW
Abrixas rocket 2.7 05:07:34 16° W 05:10:02 53° NNW 05:13:18 10° NE
Cosmos 1470 2.8 05:06:56 10° S 05:10:51 83° E 05:14:46 10° N
Cosmos 2278 Rocket 2.2 05:05:24 10° NNW 05:10:58 59° WSW 05:16:31 10° S
Cosmos 1953 2.5 05:07:48 13° SSW 05:11:16 53° W 05:15:12 10° N
Cosmos 968 Rocket 3.9 05:12:59 10° NW 05:17:48 40° WSW 05:22:33 10° S
Centaur D AC-29 3.4 05:13:54 13° SW 05:18:14 28° SSE 05:35:20 10° ESE
PSLV R/B 3.8 05:14:48 10° N 05:18:45 76° WNW 05:22:47 10° SSW
DELTA 2 R/B (1) 3.6 05:14:15 10° W 05:19:49 74° SSW 05:25:22 10° ESE
Cosmos 1733 3.3 05:19:24 10° SSW 05:23:15 64° W 05:27:06 10° N
Lacrosse 5 1.9 05:18:39 12° SW 05:23:21 84° NW 05:28:29 10° NE
NOSS 3-2 (A) 4.0 05:15:54 10° NW 05:23:27 70° WSW 05:31:35 10° SSE
Cosmos 1076 Rocket 3.5 05:20:32 10° NNW 05:24:44 62° W 05:28:56 10° S
ERBS 3.8 05:22:15 10° W 05:25:14 27° NW 05:28:15 10° NNE
Cosmos 1674 3.1 05:21:50 10° NNW 05:25:31 44° W 05:29:11 10° SSW
SL-16 R/B 2.3 05:21:37 10° SSW 05:27:17 86° ESE 05:32:59 10° NNE
CZ-2D R/B 4.2 05:31:40 10° NW 05:33:29 12° WNW 05:35:18 10° WNW
COSMOS 2455 4.5 05:28:12 10° NNW 05:33:50 40° NE 05:39:27 10° ESE
CZ-4B R/B 3.1 05:33:31 10° N 05:37:22 53° WNW 05:41:23 10° SSW
RESURS DK-1 2.4 05:33:28 10° SSW 05:37:36 87° ESE 05:41:48 10° NNE
Cosmos 1818 4.1 05:32:36 10° SW 05:37:47 45° NW 05:43:02 10° NNE
Atlas Centaur 2 3.2 05:37:17 10° SSW 05:40:15 19° SSE 05:43:39 10° ESE
Landsat 4 3.7 05:36:38 10° S 05:40:19 63° WSW 05:44:01 10° NNW
Okean 3 Rocket 4.4 05:36:40 10° NNW 05:40:35 31° W 05:44:32 10° SSW
Okean O Rocket 1.8 05:36:42 10° N 05:41:07 61° WNW 05:45:29 10° SSW
CZ-2C R/B 4.0 05:37:27 10° SSE 05:41:56 73° ENE 05:46:24 10° N
Cosmos 1766 Rocket 3.7 05:40:43 10° NNW 05:45:07 58° W 05:49:27 10° S
NOSS 3-2 (C) 4.1 05:38:13 10° NW 05:45:45 66° WSW 05:53:51 10° SSE
